Akron, CO

1:56 PM MST on November 21, 2019 (GMT -0700)
Akron-Washington County

Weather History for KAKO - August, 2019

Change the Weather History Date:

Wednesday, August 21, 2019

  Actual Average Record
Temperature  
Mean Temperature 71 °F 72 °F  
Max Temperature 84 °F 85 °F 99 °F (1960)
Min Temperature 58 °F 58 °F 40 °F (1964)
Degree Days  
Heating Degree Days 0    
Month to date heating degree days 0  
Cooling Degree Days 6    
Month to date cooling degree days 213  
Growing Degree Days 20 (Base 50)    
Moisture  
Dew Point 59 °F    
Average Humidity 65    
Maximum Humidity 93    
Minimum Humidity 37    
Precipitation  
Precipitation 0.00 in 0.06 in 0.29 in (1993)
Month to date precipitation 2.77 1.70  
Year to date precipitation 13.86 12.89  
Snow  
Snow 0.00 in - - ()
Snow Depth 0.00 in    
Sea Level Pressure  
Sea Level Pressure 30.03 in    
Wind  
Wind Speed 14 mph (East)    
Max Wind Speed 38 mph    
Max Gust Speed 49 mph    
Visibility 10 miles    
Events      
T = Trace of Precipitation, MM = Missing Value Source: NWS Daily Summary

Daily Weather History Graph

Daily Weather History Graph

Search for Another Location

Airport or City:

Astronomy

Aug. 21, 2019 Rise Set
Actual Time 6:09 AM MDT 7:41 PM MDT
Civil Twilight 5:41 AM MDT 8:10 PM MDT
Nautical Twilight 5:06 AM MDT 8:44 PM MDT
Astronomical Twilight 4:29 AM MDT 9:20 PM MDT
Moon 10:59 PM MDT 11:48 AM MDT
Length of Visible Light 14h 28m
Length of Day
13h 31m
Waning Gibbous, 68% of the Moon is Illuminated
Aug 21
Waning Gibbous
Aug 23
Last Quarter
Aug 30
New
Sep 5
First Quarter
Sep 13
Full

Hourly Weather History & Observations

Time (MDT) Temp. Heat Index Dew Point Humidity Pressure Visibility Wind Dir Wind Speed Gust Speed Precip Events Conditions
12:26 AM 69.1 °F - 66.0 °F 90% 30.13 in 10.0 mi SE 10.4 mph - N/A   Scattered Clouds
12:53 AM 68.0 °F - 64.9 °F 90% 29.91 in 10.0 mi ESE 6.9 mph - N/A   Partly Cloudy
1:41 AM 69.1 °F - 66.9 °F 93% 30.16 in 8.0 mi North 27.6 mph 35.7 mph N/A   Mostly Cloudy
1:45 AM 66.9 °F - 64.0 °F 90% 30.17 in 9.0 mi North 32.2 mph 46.0 mph N/A   Mostly Cloudy
1:53 AM 62.1 °F - 57.0 °F 84% 29.98 in 10.0 mi North 31.1 mph 48.3 mph N/A   Mostly Cloudy
2:02 AM 61.0 °F - 57.0 °F 87% 30.17 in 10.0 mi North - - N/A   Unknown
2:53 AM 61.0 °F - 55.9 °F 83% 29.98 in 10.0 mi NE 19.6 mph 31.1 mph N/A   Partly Cloudy
3:53 AM 61.0 °F - 55.0 °F 81% 29.96 in 10.0 mi ENE 16.1 mph 26.5 mph N/A   Clear
4:53 AM 57.9 °F - 55.0 °F 90% 30.15 in 10.0 mi East 6.9 mph - N/A   Clear
5:53 AM 57.9 °F - 54.0 °F 87% 30.17 in 10.0 mi ESE 5.8 mph - N/A   Clear
6:53 AM 61.0 °F - 55.0 °F 81% 30.03 in 10.0 mi SSE 6.9 mph - N/A   Clear
7:53 AM 64.9 °F - 55.0 °F 70% 30.05 in 10.0 mi ENE 4.6 mph - N/A   Clear
8:53 AM 71.1 °F - 53.1 °F 53% 30.04 in 10.0 mi East 12.7 mph - N/A   Clear
9:53 AM 73.0 °F - 54.0 °F 51% 30.04 in 10.0 mi East 10.4 mph - N/A   Clear
10:53 AM 75.0 °F - 55.0 °F 50% 30.04 in 10.0 mi East 9.2 mph - N/A   Unknown
11:53 AM 78.1 °F - 55.9 °F 46% 30.02 in 10.0 mi Calm Calm - N/A   Unknown
12:53 PM 80.1 °F 80.2 °F 55.9 °F 43% 29.99 in 8.0 mi Variable 3.5 mph - N/A   Unknown
1:53 PM 82.9 °F 82.0 °F 55.0 °F 38% 29.98 in 10.0 mi North - - N/A   Unknown
2:53 PM 82.9 °F 82.0 °F 55.0 °F 38% 29.96 in 10.0 mi NNE 6.9 mph - N/A   Unknown
3:53 PM 84.0 °F 83.0 °F 55.9 °F 38% 29.94 in 10.0 mi ENE 12.7 mph 18.4 mph N/A   Clear
4:53 PM 82.0 °F 81.4 °F 55.0 °F 39% 29.95 in - North - - N/A   Unknown
5:53 PM 80.1 °F 80.6 °F 57.9 °F 47% 29.96 in 10.0 mi East 11.5 mph - N/A   Clear
6:53 PM 77.0 °F - 60.1 °F 56% 29.95 in 10.0 mi East 11.5 mph - N/A   Clear
7:53 PM 73.0 °F - 61.0 °F 66% 29.97 in 10.0 mi East 11.5 mph - N/A   Clear
8:53 PM 71.1 °F - 62.1 °F 73% 29.98 in 10.0 mi East 11.5 mph - N/A   Clear
9:53 PM 69.1 °F - 63.0 °F 81% 29.98 in 10.0 mi ESE 12.7 mph 24.2 mph N/A   Clear
10:27 PM 69.1 °F - 64.0 °F 84% 30.14 in 10.0 mi ESE 16.1 mph - N/A   Mostly Cloudy
10:39 PM 69.1 °F - 64.0 °F 84% 30.14 in 10.0 mi SE 19.6 mph 28.8 mph N/A   Overcast
10:53 PM 69.1 °F - 64.0 °F 84% 29.98 in 10.0 mi ESE 20.7 mph - N/A   Overcast
11:53 PM 68.0 °F - 64.0 °F 87% 29.98 in 10.0 mi SE 16.1 mph - N/A   Overcast